Location: Calvatone
(45.1167°N, 10.4333°E)
Time: 09:01:14
(UTC+00:00)

METEOR M2 - Pass Details

Date: 09 December 2023
Orbit: 818 x 826 km, 98.4° (Epoch: 24 February)

Event Time Altitude Azimuth Distance (km) Brightness Sun altitude
Rises 05:17:32 0° 13° (NNE) 3,370 ? -14.7°
Reaches altitude 10° 05:19:53 10° 14° (NNE) 2,431 ? -14.3°
Maximum altitude 05:25:17 89° 97° (E) 828 ? -13.4°
Drops below altitude 10° 05:30:39 10° 195° (SSW) 2,409 ? -12.5°
Sets 05:32:58 0° 196° (SSW) 3,336 ? -12.1°
